Time,TemperatureF,DewpointF,PressureIn,WindDirection,WindDirectionDegrees,WindSpeedMPH,WindSpeedGustMPH,Humidity,HourlyPrecipIn,Conditions,Clouds,dailyrainin,SoftwareType,DateUTC
2013-11-13 00:00:00,44.3,21.5,30.15,SW,225,1.0,8.0,40,0.00,,---,0.00,VWS V13.01,2013-11-13 07:00:00,
2013-11-13 00:30:00,43.7,20.4,30.15,South,180,2.0,5.0,39,0.00,,---,0.00,VWS V13.01,2013-11-13 07:30:00,
2013-11-13 01:00:00,43.8,19.9,30.13,SW,225,3.0,11.0,38,0.00,,---,0.00,VWS V13.01,2013-11-13 08:00:00,
2013-11-13 01:30:00,45.8,21.0,30.13,SSW,202,3.0,8.0,37,0.00,,---,0.00,VWS V13.01,2013-11-13 08:30:00,
2013-11-13 02:00:00,46.3,22.1,30.12,ESE,112,2.0,10.0,38,0.00,,---,0.00,VWS V13.01,2013-11-13 09:00:00,
2013-11-13 02:30:00,47.7,20.0,30.11,WSW,248,7.0,14.0,33,0.00,,---,0.00,VWS V13.01,2013-11-13 09:30:00,
2013-11-13 03:00:00,49.8,21.1,30.11,SW,225,8.0,16.0,32,0.00,,---,0.00,VWS V13.01,2013-11-13 10:00:00,
2013-11-13 03:30:00,50.2,21.5,30.10,SW,225,9.0,15.0,32,0.00,,---,0.00,VWS V13.01,2013-11-13 10:30:00,
2013-11-13 04:00:00,49.9,22.0,30.11,North,0,2.0,12.0,33,0.00,,---,0.00,VWS V13.01,2013-11-13 11:00:00,
2013-11-13 04:30:00,49.4,21.5,30.09,North,0,1.0,12.0,33,0.00,,---,0.00,VWS V13.01,2013-11-13 11:30:00,
2013-11-13 05:00:00,48.6,22.2,30.09,South,180,2.0,8.0,35,0.00,,---,0.00,VWS V13.01,2013-11-13 12:00:00,
2013-11-13 05:30:00,48.2,21.2,30.09,East,90,2.0,7.0,34,0.00,,---,0.00,VWS V13.01,2013-11-13 12:30:00,
2013-11-13 06:00:00,48.3,21.9,30.08,SE,135,0.0,4.0,35,0.00,,---,0.00,VWS V13.01,2013-11-13 13:00:00,
2013-11-13 06:30:00,47.7,20.0,30.08,WSW,248,2.0,9.0,33,0.00,,---,0.00,VWS V13.01,2013-11-13 13:30:00,
2013-11-13 07:00:00,47.9,21.6,30.07,WSW,248,4.0,8.0,35,0.00,,---,0.00,VWS V13.01,2013-11-13 14:00:00,
2013-11-13 07:30:00,47.1,20.9,30.07,West,270,1.0,6.0,35,0.00,,---,0.00,VWS V13.01,2013-11-13 14:30:00,
2013-11-13 08:00:00,46.3,22.1,30.08,East,90,2.0,7.0,38,0.00,,---,0.00,VWS V13.01,2013-11-13 15:00:00,
2013-11-13 08:30:00,48.6,20.8,30.07,WSW,248,6.0,14.0,33,0.00,,---,0.00,VWS V13.01,2013-11-13 15:30:00,
2013-11-13 09:00:00,53.2,25.6,30.07,NNE,33,0.0,4.0,34,0.00,,---,0.00,VWS V15.00,2013-11-13 16:00:00,
2013-11-13 09:03:00,52.4,23.4,30.06,SW,225,9.0,17.0,32,0.00,,---,0.00,VWS V13.01,2013-11-13 16:03:00,
2013-11-13 09:08:00,53.8,23.9,30.05,SW,230,7.0,11.0,31,0.00,,---,0.00,VWS V13.01,2013-11-13 16:08:00,
2013-11-13 09:13:00,53.9,24.0,30.06,NW,305,1.0,11.0,31,0.00,,---,0.00,VWS V13.01,2013-11-13 16:13:00,
2013-11-13 09:18:00,53.9,24.7,30.06,WNW,291,2.0,11.0,32,0.00,,---,0.00,VWS V13.01,2013-11-13 16:18:00,
2013-11-13 09:23:00,53.8,23.9,30.06,ESE,111,5.0,11.0,31,0.00,,---,0.00,VWS V13.01,2013-11-13 16:23:00,
2013-11-13 09:28:00,53.4,24.3,30.06,ENE,71,0.0,11.0,32,0.00,,---,0.00,VWS V13.01,2013-11-13 16:28:00,
2013-11-13 09:30:00,54.4,25.9,30.06,North,358,4.0,7.0,33,0.00,,---,0.00,VWS V15.00,2013-11-13 16:30:00,
2013-11-13 09:33:00,53.3,25.0,30.06,ENE,71,0.0,0.0,33,0.00,,---,0.00,VWS V13.01,2013-11-13 16:33:00,
2013-11-13 09:38:00,53.0,24.7,30.06,NNE,33,3.0,4.0,33,0.00,,---,0.00,VWS V13.01,2013-11-13 16:38:00,
2013-11-13 09:43:00,52.9,24.6,30.06,NNE,33,1.0,4.0,33,0.00,,---,0.00,VWS V13.01,2013-11-13 16:43:00,
2013-11-13 09:48:00,52.9,24.6,30.06,NNE,33,0.0,4.0,33,0.00,,---,0.00,VWS V13.01,2013-11-13 16:48:00,
2013-11-13 09:53:00,53.0,24.7,30.07,NNE,33,0.0,4.0,33,0.00,,---,0.00,VWS V13.01,2013-11-13 16:53:00,
2013-11-13 09:58:00,53.1,24.8,30.06,NNE,33,0.0,4.0,33,0.00,,---,0.00,VWS V13.01,2013-11-13 16:58:00,
2013-11-13 10:00:00,53.9,25.5,30.04,North,0,2.0,8.0,33,0.00,,---,0.00,VWS V15.00,2013-11-13 17:00:00,
2013-11-13 10:03:00,53.2,25.6,30.06,NNE,33,0.0,0.0,34,0.00,,---,0.00,VWS V13.01,2013-11-13 17:03:00,
2013-11-13 10:08:00,53.5,25.1,30.06,NNE,33,1.0,2.0,33,0.00,,---,0.00,VWS V13.01,2013-11-13 17:08:00,
2013-11-13 10:13:00,53.9,25.5,30.06,NNE,33,0.0,2.0,33,0.00,,---,0.00,VWS V13.01,2013-11-13 17:13:00,
2013-11-13 10:19:00,54.2,26.5,30.06,NNE,33,0.0,2.0,34,0.00,,---,0.00,VWS V13.01,2013-11-13 17:19:00,
2013-11-13 10:24:00,54.4,25.9,30.05,North,8,1.0,5.0,33,0.00,,---,0.00,VWS V13.01,2013-11-13 17:24:00,
2013-11-13 10:29:00,54.4,25.9,30.06,North,0,4.0,5.0,33,0.00,,---,0.00,VWS V13.01,2013-11-13 17:29:00,
2013-11-13 10:30:00,53.7,26.7,30.03,North,0,0.0,6.0,35,0.00,,---,0.00,VWS V15.00,2013-11-13 17:30:00,
2013-11-13 10:34:00,54.3,25.8,30.05,North,2,8.0,8.0,33,0.00,,---,0.00,VWS V13.01,2013-11-13 17:34:00,
2013-11-13 10:39:00,53.9,25.5,30.05,North,0,4.0,8.0,33,0.00,,---,0.00,VWS V13.01,2013-11-13 17:39:00,
2013-11-13 10:44:00,53.7,25.3,30.05,North,0,3.0,8.0,33,0.00,,---,0.00,VWS V13.01,2013-11-13 17:44:00,
2013-11-13 10:49:00,53.8,25.4,30.04,North,0,0.0,8.0,33,0.00,,---,0.00,VWS V13.01,2013-11-13 17:49:00,
2013-11-13 10:54:00,53.9,25.5,30.05,North,0,2.0,8.0,33,0.00,,---,0.00,VWS V13.01,2013-11-13 17:54:00,
2013-11-13 10:59:00,53.9,25.5,30.04,North,0,1.0,8.0,33,0.00,,---,0.00,VWS V13.01,2013-11-13 17:59:00,
2013-11-13 11:00:00,53.7,26.7,30.02,North,0,2.0,2.0,35,0.00,,---,0.00,VWS V15.00,2013-11-13 18:00:00,
2013-11-13 11:04:00,53.8,25.4,30.04,North,0,2.0,6.0,33,0.00,,---,0.00,VWS V13.01,2013-11-13 18:04:00,
2013-11-13 11:09:00,53.9,26.9,30.04,North,1,0.0,6.0,35,0.00,,---,0.00,VWS V13.01,2013-11-13 18:09:00,
2013-11-13 11:14:00,53.9,25.5,30.04,North,1,0.0,6.0,33,0.00,,---,0.00,VWS V13.01,2013-11-13 18:14:00,
2013-11-13 11:19:00,53.8,26.1,30.04,North,0,0.0,6.0,34,0.00,,---,0.00,VWS V13.01,2013-11-13 18:19:00,
2013-11-13 11:24:00,53.7,26.0,30.03,North,0,0.0,6.0,34,0.00,,---,0.00,VWS V13.01,2013-11-13 18:24:00,
2013-11-13 11:29:00,53.7,26.7,30.03,North,0,0.0,6.0,35,0.00,,---,0.00,VWS V13.01,2013-11-13 18:29:00,
2013-11-13 11:30:00,54.3,26.5,30.01,North,0,2.0,6.0,34,0.00,,---,0.00,VWS V15.00,2013-11-13 18:30:00,
2013-11-13 11:34:00,53.7,26.7,30.03,North,0,0.0,2.0,35,0.00,,---,0.00,VWS V13.01,2013-11-13 18:34:00,
2013-11-13 11:39:00,53.5,26.5,30.03,North,0,0.0,2.0,35,0.00,,---,0.00,VWS V13.01,2013-11-13 18:39:00,
2013-11-13 11:44:00,53.6,26.6,30.02,North,0,0.0,2.0,35,0.00,,---,0.00,VWS V13.01,2013-11-13 18:44:00,
2013-11-13 11:50:00,53.6,26.6,30.02,North,0,0.0,2.0,35,0.00,,---,0.00,VWS V13.01,2013-11-13 18:50:00,
2013-11-13 11:55:00,53.7,26.0,30.02,North,0,1.0,2.0,34,0.00,,---,0.00,VWS V13.01,2013-11-13 18:55:00,
2013-11-13 12:00:00,53.7,26.7,30.02,North,0,0.0,2.0,35,0.00,,---,0.00,VWS V13.01,2013-11-13 19:00:00,
2013-11-13 12:05:00,53.8,26.8,30.02,North,0,2.0,4.0,35,0.00,,---,0.00,VWS V13.01,2013-11-13 19:05:00,
2013-11-13 12:10:00,54.0,26.3,30.01,North,0,2.0,5.0,34,0.00,,---,0.00,VWS V13.01,2013-11-13 19:10:00,
2013-11-13 12:15:00,54.1,26.4,30.01,North,349,1.0,5.0,34,0.00,,---,0.00,VWS V13.01,2013-11-13 19:15:00,
2013-11-13 12:20:00,54.1,25.6,30.00,North,0,4.0,5.0,33,0.00,,---,0.00,VWS V13.01,2013-11-13 19:20:00,
2013-11-13 12:25:00,54.2,26.5,30.00,North,0,5.0,6.0,34,0.00,,---,0.00,VWS V13.01,2013-11-13 19:25:00,
2013-11-13 12:30:00,54.3,26.5,30.01,North,0,3.0,3.0,34,0.00,,---,0.00,VWS V13.01,2013-11-13 19:30:00,
2013-11-13 12:35:00,54.3,27.2,30.00,North,0,2.0,4.0,35,0.00,,---,0.00,VWS V13.01,2013-11-13 19:35:00,
2013-11-13 12:40:00,54.5,26.0,30.00,North,0,3.0,5.0,33,0.00,,---,0.00,VWS V13.01,2013-11-13 19:40:00,
2013-11-13 12:45:00,54.9,26.4,30.00,North,0,0.0,5.0,33,0.00,,---,0.00,VWS V13.01,2013-11-13 19:45:00,
2013-11-13 12:50:00,55.1,26.5,30.00,North,0,0.0,5.0,33,0.00,,---,0.00,VWS V13.01,2013-11-13 19:50:00,
2013-11-13 12:55:00,55.4,27.5,29.99,North,0,1.0,5.0,34,0.00,,---,0.00,VWS V13.01,2013-11-13 19:55:00,
2013-11-13 13:00:00,56.3,28.3,29.99,NNW,338,5.0,10.0,34,0.00,,---,0.00,VWS V13.01,2013-11-13 20:00:00,
2013-11-13 13:05:00,57.4,28.5,30.00,West,279,9.0,10.0,33,0.00,,---,0.00,VWS V13.01,2013-11-13 20:05:00,
2013-11-13 13:10:00,58.5,29.5,29.99,WNW,297,9.0,11.0,33,0.00,,---,0.00,VWS V13.01,2013-11-13 20:10:00,
2013-11-13 13:15:00,58.8,29.8,29.99,West,276,7.0,13.0,33,0.00,,---,0.00,VWS V13.01,2013-11-13 20:15:00,
2013-11-13 13:21:00,58.6,29.6,29.99,WNW,285,8.0,13.0,33,0.00,,---,0.00,VWS V13.01,2013-11-13 20:21:00,
2013-11-13 13:26:00,57.8,29.6,29.99,WNW,283,8.0,17.0,34,0.00,,---,0.00,VWS V13.01,2013-11-13 20:26:00,
2013-11-13 13:30:00,52.0,29.6,29.98,West,265,8.0,20.0,42,0.00,,---,0.00,VWS V15.00,2013-11-13 20:30:00,
2013-11-13 13:31:00,57.4,29.3,29.98,West,275,6.0,17.0,34,0.00,,---,0.00,VWS V13.01,2013-11-13 20:31:00,
2013-11-13 13:36:00,57.0,29.6,29.99,West,264,6.0,17.0,35,0.00,,---,0.00,VWS V13.01,2013-11-13 20:36:00,
2013-11-13 13:41:00,56.6,29.3,29.98,SW,234,11.0,17.0,35,0.00,,---,0.00,VWS V13.01,2013-11-13 20:41:00,
2013-11-13 13:46:00,56.2,29.6,29.98,West,264,8.0,17.0,36,0.00,,---,0.00,VWS V13.01,2013-11-13 20:46:00,
2013-11-13 13:51:00,56.1,29.5,29.98,West,267,7.0,18.0,36,0.00,,---,0.00,VWS V13.01,2013-11-13 20:51:00,
2013-11-13 13:56:00,56.0,30.1,29.98,WSW,243,9.0,18.0,37,0.00,,---,0.00,VWS V13.01,2013-11-13 20:56:00,
2013-11-13 14:00:00,52.5,29.5,29.98,WSW,258,11.0,21.0,41,0.00,,---,0.00,VWS V15.00,2013-11-13 21:00:00,
2013-11-13 14:01:00,55.6,30.4,29.98,SW,227,9.0,16.0,38,0.00,,---,0.00,VWS V13.01,2013-11-13 21:01:00,
2013-11-13 14:06:00,55.1,30.0,29.99,WSW,251,8.0,17.0,38,0.00,,---,0.00,VWS V13.01,2013-11-13 21:06:00,
2013-11-13 14:11:00,54.5,30.1,29.98,WSW,249,8.0,17.0,39,0.00,,---,0.00,VWS V13.01,2013-11-13 21:11:00,
2013-11-13 14:16:00,53.7,30.0,29.98,WSW,257,13.0,17.0,40,0.00,,---,0.00,VWS V13.01,2013-11-13 21:16:00,
2013-11-13 14:22:00,52.8,29.8,29.99,SW,232,10.0,20.0,41,0.00,,---,0.00,VWS V13.01,2013-11-13 21:22:00,
2013-11-13 14:27:00,52.3,29.9,29.98,SW,236,10.0,20.0,42,0.00,,---,0.00,VWS V13.01,2013-11-13 21:27:00,
2013-11-13 14:30:00,50.6,28.4,29.98,WSW,251,8.0,18.0,42,0.00,,---,0.00,VWS V15.00,2013-11-13 21:30:00,
2013-11-13 14:32:00,51.9,29.5,29.98,WSW,251,12.0,21.0,42,0.00,,---,0.00,VWS V13.01,2013-11-13 21:32:00,
2013-11-13 14:37:00,51.8,29.5,29.98,WSW,248,7.0,21.0,42,0.00,,---,0.00,VWS V13.01,2013-11-13 21:37:00,
2013-11-13 14:42:00,52.0,29.0,29.99,SW,236,8.0,21.0,41,0.00,,---,0.00,VWS V13.01,2013-11-13 21:42:00,
2013-11-13 14:47:00,52.4,30.0,29.99,West,275,7.0,21.0,42,0.00,,---,0.00,VWS V13.01,2013-11-13 21:47:00,
2013-11-13 14:52:00,52.7,29.7,29.99,WSW,242,11.0,21.0,41,0.00,,---,0.00,VWS V13.01,2013-11-13 21:52:00,
2013-11-13 14:57:00,52.7,29.7,29.99,WSW,241,8.0,21.0,41,0.00,,---,0.00,VWS V13.01,2013-11-13 21:57:00,
2013-11-13 15:00:00,49.4,30.0,29.98,WNW,290,5.0,18.0,47,0.00,,---,0.00,VWS V15.00,2013-11-13 22:00:00,
2013-11-13 15:02:00,52.3,29.3,29.99,WSW,252,8.0,17.0,41,0.00,,---,0.00,VWS V13.01,2013-11-13 22:02:00,
2013-11-13 15:08:00,51.9,29.0,29.98,West,272,8.0,17.0,41,0.00,,---,0.00,VWS V13.01,2013-11-13 22:08:00,
2013-11-13 15:13:00,51.5,29.8,29.98,WSW,255,9.0,17.0,43,0.00,,---,0.00,VWS V13.01,2013-11-13 22:13:00,
2013-11-13 15:18:00,51.1,29.4,29.98,West,270,8.0,17.0,43,0.00,,---,0.00,VWS V13.01,2013-11-13 22:18:00,
2013-11-13 15:23:00,50.8,29.1,29.99,WSW,238,9.0,17.0,43,0.00,,---,0.00,VWS V13.01,2013-11-13 22:23:00,
2013-11-13 15:28:00,50.6,28.4,29.99,SW,235,8.0,18.0,42,0.00,,---,0.00,VWS V13.01,2013-11-13 22:28:00,
2013-11-13 15:30:00,48.6,29.3,29.98,WNW,285,3.0,20.0,47,0.00,,---,0.00,VWS V15.00,2013-11-13 22:30:00,
2013-11-13 15:33:00,50.4,28.8,29.98,SSW,208,11.0,14.0,43,0.00,,---,0.00,VWS V13.01,2013-11-13 22:33:00,
2013-11-13 15:38:00,50.2,28.6,29.98,West,261,7.0,14.0,43,0.00,,---,0.00,VWS V13.01,2013-11-13 22:38:00,
2013-11-13 15:43:00,50.0,29.0,29.99,SW,229,9.0,14.0,44,0.00,,---,0.00,VWS V13.01,2013-11-13 22:43:00,
2013-11-13 15:48:00,49.8,29.3,29.98,WSW,256,9.0,14.0,45,0.00,,---,0.00,VWS V13.01,2013-11-13 22:48:00,
2013-11-13 15:53:00,49.6,29.1,29.99,WSW,253,8.0,14.0,45,0.00,,---,0.00,VWS V13.01,2013-11-13 22:53:00,
2013-11-13 15:59:00,49.4,29.5,29.99,West,261,7.0,18.0,46,0.00,,---,0.00,VWS V13.01,2013-11-13 22:59:00,
2013-11-13 16:00:00,46.5,27.9,29.99,West,279,8.0,11.0,48,0.00,,---,0.00,VWS V15.00,2013-11-13 23:00:00,
2013-11-13 16:04:00,49.4,30.0,29.98,WSW,249,15.0,20.0,47,0.00,,---,0.00,VWS V13.01,2013-11-13 23:04:00,
2013-11-13 16:09:00,49.6,30.2,29.98,West,265,13.0,20.0,47,0.00,,---,0.00,VWS V13.01,2013-11-13 23:09:00,
2013-11-13 16:14:00,49.6,30.2,29.98,WSW,256,7.0,20.0,47,0.00,,---,0.00,VWS V13.01,2013-11-13 23:14:00,
2013-11-13 16:19:00,49.3,29.9,29.97,WSW,248,4.0,20.0,47,0.00,,---,0.00,VWS V13.01,2013-11-13 23:19:00,
2013-11-13 16:24:00,49.0,30.2,29.98,West,274,4.0,20.0,48,0.00,,---,0.00,VWS V13.01,2013-11-13 23:24:00,
2013-11-13 16:29:00,48.7,29.9,29.98,West,271,7.0,20.0,48,0.00,,---,0.00,VWS V13.01,2013-11-13 23:29:00,
2013-11-13 16:30:00,46.9,26.7,30.01,WNW,299,0.0,13.0,45,0.00,,---,0.00,VWS V15.00,2013-11-13 23:30:00,
2013-11-13 16:34:00,48.4,29.1,29.98,WNW,283,6.0,10.0,47,0.00,,---,0.00,VWS V13.01,2013-11-13 23:34:00,
2013-11-13 16:39:00,48.0,28.8,29.99,West,272,3.0,11.0,47,0.00,,---,0.00,VWS V13.01,2013-11-13 23:39:00,
2013-11-13 16:44:00,47.6,28.9,29.99,West,276,5.0,11.0,48,0.00,,---,0.00,VWS V13.01,2013-11-13 23:44:00,
2013-11-13 16:49:00,47.2,28.5,29.99,West,266,5.0,11.0,48,0.00,,---,0.00,VWS V13.01,2013-11-13 23:49:00,
2013-11-13 16:54:00,46.9,28.2,29.98,WNW,294,0.0,11.0,48,0.00,,---,0.00,VWS V13.01,2013-11-13 23:54:00,
2013-11-13 16:59:00,46.5,27.9,29.99,West,279,8.0,11.0,48,0.00,,---,0.00,VWS V13.01,2013-11-13 23:59:00,
2013-11-13 17:00:00,46.3,27.2,30.01,WSW,258,6.0,10.0,47,0.00,,---,0.00,VWS V15.00,2013-11-14 00:00:00,
2013-11-13 17:04:00,46.5,27.9,29.99,WNW,293,3.0,9.0,48,0.00,,---,0.00,VWS V13.01,2013-11-14 00:04:00,
2013-11-13 17:09:00,46.5,27.4,30.00,WNW,293,7.0,11.0,47,0.00,,---,0.00,VWS V13.01,2013-11-14 00:09:00,
2013-11-13 17:15:00,46.7,28.1,30.00,WNW,287,8.0,13.0,48,0.00,,---,0.00,VWS V13.01,2013-11-14 00:15:00,
2013-11-13 17:20:00,46.7,28.1,30.00,WNW,300,3.0,13.0,48,0.00,,---,0.00,VWS V13.01,2013-11-14 00:20:00,
2013-11-13 17:25:00,46.7,27.0,29.99,West,278,3.0,13.0,46,0.00,,---,0.00,VWS V13.01,2013-11-14 00:25:00,
2013-11-13 17:30:00,46.9,26.7,30.01,WNW,286,3.0,8.0,45,0.00,,---,0.00,VWS V13.01,2013-11-14 00:30:00,
2013-11-13 17:35:00,47.1,26.9,30.00,West,261,2.0,8.0,45,0.00,,---,0.00,VWS V13.01,2013-11-14 00:35:00,
2013-11-13 17:40:00,47.0,26.8,30.01,West,270,1.0,8.0,45,0.00,,---,0.00,VWS V13.01,2013-11-14 00:40:00,
2013-11-13 17:45:00,46.7,27.0,30.01,WSW,255,5.0,10.0,46,0.00,,---,0.00,VWS V13.01,2013-11-14 00:45:00,
2013-11-13 17:50:00,46.5,26.9,30.00,West,269,9.0,10.0,46,0.00,,---,0.00,VWS V13.01,2013-11-14 00:50:00,
2013-11-13 17:55:00,46.4,26.8,30.00,West,276,4.0,10.0,46,0.00,,---,0.00,VWS V13.01,2013-11-14 00:55:00,
2013-11-13 18:00:00,46.2,27.1,30.01,West,262,3.0,8.0,47,0.00,,---,0.00,VWS V13.01,2013-11-14 01:00:00,
2013-11-13 18:05:00,45.7,27.1,30.01,West,265,4.0,9.0,48,0.00,,---,0.00,VWS V13.01,2013-11-14 01:05:00,
2013-11-13 18:10:00,45.1,26.6,30.00,WSW,241,7.0,9.0,48,0.00,,---,0.00,VWS V13.01,2013-11-14 01:10:00,
2013-11-13 18:15:00,44.4,26.5,30.01,WSW,258,4.0,10.0,49,0.00,,---,0.00,VWS V13.01,2013-11-14 01:15:00,
2013-11-13 18:21:00,43.8,25.4,30.00,WSW,238,5.0,10.0,48,0.00,,---,0.00,VWS V13.01,2013-11-14 01:21:00,
2013-11-13 18:26:00,43.5,25.1,30.00,WSW,255,3.0,10.0,48,0.00,,---,0.00,VWS V13.01,2013-11-14 01:26:00,
2013-11-13 18:30:00,45.2,24.6,30.00,West,269,3.0,12.0,44,0.00,,---,0.00,VWS V15.00,2013-11-14 01:30:00,
2013-11-13 18:31:00,43.3,24.9,30.00,West,267,3.0,4.0,48,0.00,,---,0.00,VWS V13.01,2013-11-14 01:31:00,
2013-11-13 18:36:00,43.3,24.9,30.01,North,356,5.0,5.0,48,0.00,,---,0.00,VWS V13.01,2013-11-14 01:36:00,
2013-11-13 18:41:00,43.4,25.0,30.01,North,352,0.0,8.0,48,0.00,,---,0.00,VWS V13.01,2013-11-14 01:41:00,
2013-11-13 18:46:00,43.5,24.6,30.01,NW,316,12.0,14.0,47,0.00,,---,0.00,VWS V13.01,2013-11-14 01:46:00,
2013-11-13 18:51:00,43.9,24.5,30.01,NNE,25,1.0,14.0,46,0.00,,---,0.00,VWS V13.01,2013-11-14 01:51:00,
2013-11-13 18:56:00,44.2,24.8,30.01,SW,220,3.0,14.0,46,0.00,,---,0.00,VWS V13.01,2013-11-14 01:56:00,
2013-11-13 19:00:00,44.4,24.4,30.01,WNW,283,5.0,10.0,45,0.00,,---,0.00,VWS V15.00,2013-11-14 02:00:00,
2013-11-13 19:01:00,44.6,25.1,30.00,WNW,282,5.0,7.0,46,0.00,,---,0.00,VWS V13.01,2013-11-14 02:01:00,
2013-11-13 19:06:00,44.8,25.3,30.01,WSW,250,9.0,10.0,46,0.00,,---,0.00,VWS V13.01,2013-11-14 02:06:00,
2013-11-13 19:11:00,44.7,25.7,30.01,West,273,5.0,10.0,47,0.00,,---,0.00,VWS V13.01,2013-11-14 02:11:00,
2013-11-13 19:16:00,44.9,25.4,30.00,West,274,4.0,12.0,46,0.00,,---,0.00,VWS V13.01,2013-11-14 02:16:00,
2013-11-13 19:22:00,45.1,25.0,30.00,West,262,5.0,12.0,45,0.00,,---,0.00,VWS V13.01,2013-11-14 02:22:00,
2013-11-13 19:27:00,45.2,24.6,30.01,WNW,297,5.0,12.0,44,0.00,,---,0.00,VWS V13.01,2013-11-14 02:27:00,
2013-11-13 19:30:00,45.6,24.4,30.02,WNW,291,3.0,14.0,43,0.00,,---,0.00,VWS V15.00,2013-11-14 02:30:00,
2013-11-13 19:32:00,45.2,24.6,30.01,West,275,1.0,5.0,44,0.00,,---,0.00,VWS V13.01,2013-11-14 02:32:00,
2013-11-13 19:37:00,44.8,24.8,30.00,WNW,295,1.0,9.0,45,0.00,,---,0.00,VWS V13.01,2013-11-14 02:37:00,
2013-11-13 19:42:00,44.6,24.6,30.00,NNW,331,1.0,9.0,45,0.00,,---,0.00,VWS V13.01,2013-11-14 02:42:00,
2013-11-13 19:47:00,44.5,24.5,30.00,WNW,300,2.0,9.0,45,0.00,,---,0.00,VWS V13.01,2013-11-14 02:47:00,
2013-11-13 19:52:00,44.3,24.8,30.00,WNW,294,2.0,9.0,46,0.00,,---,0.00,VWS V13.01,2013-11-14 02:52:00,
2013-11-13 19:57:00,44.3,24.8,30.00,WNW,283,8.0,10.0,46,0.00,,---,0.00,VWS V13.01,2013-11-14 02:57:00,
2013-11-13 20:00:00,44.5,24.0,30.01,WNW,289,3.0,6.0,44,0.00,,---,0.00,VWS V15.00,2013-11-14 03:00:00,
2013-11-13 20:02:00,44.7,24.7,30.02,WNW,284,8.0,14.0,45,0.00,,---,0.00,VWS V13.01,2013-11-14 03:02:00,
2013-11-13 20:07:00,45.2,24.6,30.02,WNW,294,7.0,14.0,44,0.00,,---,0.00,VWS V13.01,2013-11-14 03:07:00,
2013-11-13 20:12:00,45.7,24.5,30.01,WNW,302,5.0,14.0,43,0.00,,---,0.00,VWS V13.01,2013-11-14 03:12:00,
2013-11-13 20:17:00,45.8,24.6,30.01,WNW,292,4.0,14.0,43,0.00,,---,0.00,VWS V13.01,2013-11-14 03:17:00,
2013-11-13 20:22:00,45.7,24.5,30.01,WNW,301,4.0,14.0,43,0.00,,---,0.00,VWS V13.01,2013-11-14 03:22:00,
2013-11-13 20:28:00,45.6,23.9,30.01,NW,308,0.0,14.0,42,0.00,,---,0.00,VWS V13.01,2013-11-14 03:28:00,
2013-11-13 20:30:00,41.7,23.5,30.04,North,355,6.0,16.0,48,0.00,,---,0.00,VWS V15.00,2013-11-14 03:30:00,
2013-11-13 20:33:00,45.3,24.1,30.02,WNW,294,2.0,3.0,43,0.00,,---,0.00,VWS V13.01,2013-11-14 03:33:00,
2013-11-13 20:38:00,44.9,23.8,30.01,WNW,298,1.0,4.0,43,0.00,,---,0.00,VWS V13.01,2013-11-14 03:38:00,
2013-11-13 20:43:00,44.7,24.1,30.02,NW,313,4.0,5.0,44,0.00,,---,0.00,VWS V13.01,2013-11-14 03:43:00,
2013-11-13 20:48:00,44.6,24.0,30.01,WNW,302,2.0,6.0,44,0.00,,---,0.00,VWS V13.01,2013-11-14 03:48:00,
2013-11-13 20:53:00,44.6,24.0,30.02,WNW,303,1.0,6.0,44,0.00,,---,0.00,VWS V13.01,2013-11-14 03:53:00,
2013-11-13 20:58:00,44.5,24.0,30.01,WNW,297,1.0,6.0,44,0.00,,---,0.00,VWS V13.01,2013-11-14 03:58:00,
2013-11-13 21:00:00,40.0,24.3,30.05,North,357,0.0,6.0,53,0.00,,---,0.00,VWS V15.00,2013-11-14 04:00:00,
2013-11-13 21:03:00,44.6,24.0,30.04,NNW,343,13.0,13.0,44,0.00,,---,0.00,VWS V13.01,2013-11-14 04:03:00,
2013-11-13 21:08:00,43.9,23.4,30.03,North,353,4.0,16.0,44,0.00,,---,0.00,VWS V13.01,2013-11-14 04:08:00,
2013-11-13 21:13:00,43.2,23.3,30.04,North,353,5.0,16.0,45,0.00,,---,0.00,VWS V13.01,2013-11-14 04:13:00,
2013-11-13 21:18:00,42.6,23.3,30.04,North,356,3.0,16.0,46,0.00,,---,0.00,VWS V13.01,2013-11-14 04:18:00,
2013-11-13 21:23:00,42.1,23.3,30.04,North,349,2.0,16.0,47,0.00,,---,0.00,VWS V13.01,2013-11-14 04:23:00,
2013-11-13 21:28:00,41.7,23.5,30.04,North,354,3.0,16.0,48,0.00,,---,0.00,VWS V13.01,2013-11-14 04:28:00,
2013-11-13 21:30:00,38.1,22.0,30.04,North,357,0.0,2.0,52,0.00,,---,0.00,VWS V15.00,2013-11-14 04:30:00,
2013-11-13 21:34:00,41.3,23.6,30.05,North,357,0.0,6.0,49,0.00,,---,0.00,VWS V13.01,2013-11-14 04:34:00,
2013-11-13 21:39:00,41.1,23.9,30.05,North,357,0.0,6.0,50,0.00,,---,0.00,VWS V13.01,2013-11-14 04:39:00,
2013-11-13 21:44:00,40.8,24.1,30.04,North,357,0.0,6.0,51,0.00,,---,0.00,VWS V13.01,2013-11-14 04:44:00,
2013-11-13 21:49:00,40.5,23.8,30.04,North,357,0.0,6.0,51,0.00,,---,0.00,VWS V13.01,2013-11-14 04:49:00,
2013-11-13 21:54:00,40.2,24.0,30.05,North,357,1.0,6.0,52,0.00,,---,0.00,VWS V13.01,2013-11-14 04:54:00,
2013-11-13 21:59:00,39.9,23.7,30.05,North,357,2.0,2.0,52,0.00,,---,0.00,VWS V13.01,2013-11-14 04:59:00,
2013-11-13 22:00:00,34.9,21.2,30.02,ENE,71,5.0,5.0,57,0.00,,---,0.00,VWS V15.00,2013-11-14 05:00:00,
2013-11-13 22:01:00,39.9,23.7,30.05,North,357,0.0,2.0,52,0.00,,---,0.00,VWS V13.01,2013-11-14 05:01:00,
2013-11-13 22:02:00,39.8,23.6,30.05,North,357,0.0,2.0,52,0.00,,---,0.00,VWS V13.01,2013-11-14 05:02:00,
2013-11-13 22:03:00,39.8,24.1,30.05,North,357,0.0,2.0,53,0.00,,---,0.00,VWS V13.01,2013-11-14 05:03:00,
2013-11-13 22:09:00,39.5,23.4,30.06,North,357,0.0,2.0,52,0.00,,---,0.00,VWS V13.01,2013-11-14 05:09:00,
2013-11-13 22:14:00,39.2,22.6,30.05,North,357,0.0,2.0,51,0.00,,---,0.00,VWS V13.01,2013-11-14 05:14:00,
2013-11-13 22:19:00,38.8,22.2,30.05,North,357,0.0,2.0,51,0.00,,---,0.00,VWS V13.01,2013-11-14 05:19:00,
2013-11-13 22:24:00,38.5,22.4,30.05,North,357,0.0,2.0,52,0.00,,---,0.00,VWS V13.01,2013-11-14 05:24:00,
2013-11-13 22:29:00,38.1,22.0,30.04,North,357,1.0,2.0,52,0.00,,---,0.00,VWS V13.01,2013-11-14 05:29:00,
2013-11-13 22:30:00,34.1,22.1,30.04,ESE,112,2.0,6.0,61,0.00,,---,0.00,VWS V15.00,2013-11-14 05:30:00,
2013-11-13 22:34:00,37.9,21.9,30.04,North,357,0.0,1.0,52,0.00,,---,0.00,VWS V13.01,2013-11-14 05:34:00,
2013-11-13 22:39:00,37.5,21.5,30.04,North,357,0.0,1.0,52,0.00,,---,0.00,VWS V13.01,2013-11-14 05:39:00,
2013-11-13 22:44:00,36.9,20.9,30.03,North,356,0.0,2.0,52,0.00,,---,0.00,VWS V13.01,2013-11-14 05:44:00,
2013-11-13 22:49:00,36.3,20.8,30.04,North,356,0.0,2.0,53,0.00,,---,0.00,VWS V13.01,2013-11-14 05:49:00,
2013-11-13 22:54:00,35.6,20.6,30.04,North,355,0.0,3.0,54,0.00,,---,0.00,VWS V13.01,2013-11-14 05:54:00,
2013-11-13 22:59:00,35.0,20.9,30.02,ENE,65,4.0,5.0,56,0.00,,---,0.00,VWS V13.01,2013-11-14 05:59:00,
2013-11-13 23:00:00,33.1,21.9,30.03,SW,225,0.0,5.0,63,0.00,,---,0.00,VWS V15.00,2013-11-14 06:00:00,
2013-11-13 23:04:00,34.2,21.4,30.03,ESE,112,0.0,6.0,59,0.00,,---,0.00,VWS V13.01,2013-11-14 06:04:00,
2013-11-13 23:09:00,33.7,21.3,30.03,ESE,111,2.0,6.0,60,0.00,,---,0.00,VWS V13.01,2013-11-14 06:09:00,
2013-11-13 23:30:00,34.1,22.1,30.04,ESE,112,2.0,6.0,61,0.00,,---,0.00,VWS V13.01,2013-11-14 06:30:00,